Regional Weather Roundup
Issued by NWS

Home | Current Version | Previous Version | Text Only | Print | Product List | Glossary On
Versions: 1 2 3 4 5 6 7 8 9 10 11 12 13 14 15 16 17 18 19 20 21 22 23 24 25 26 27
000
ASCA42 TJSJ 210310
RWRPR
PUERTO RICO/U.S. VIRGIN ISLANDS HOURLY WEATHER ROUNDUP
NATIONAL WEATHER SERVICE SAN JUAN PR
1100 PM AST FRI OCT 20 2017

PRZ001>002-007>008-010-210400-
PUERTO RICO

CITY           SKY/WX    TMP DP  RH WIND       PRES   REMARKS
SAN JUAN LMM   LGT RAIN  79  79 100 SE3       30.00F
PONCE          CLEAR     79  68  69 VRB2      29.99S
AGUADILLA      CLEAR     75  72  88 E9        30.02R
$$

VIZ001>002-210400-
U.S. VIRGIN ISLANDS

CITY           SKY/WX    TMP DP  RH WIND       PRES   REMARKS
$$

HOURLY WEATHER ROUNDUP FOR THE NEWS MEDIA

CITY           SKY/WX    TMP DP  RH WIND       PRES   REMARKS
NEW YORK       PTCLDY    62  37  39 NW8       30.21R
NEWARK         CLEAR     63  37  38 N3        30.21R
CHICAGO        CLOUDY    65  48  54 S12       30.05R
HARTFORD       CLEAR     54  40  59 W3        30.12R
BOSTON         CLEAR     63  35  35 NW12      30.13R
DALLAS         PTCLDY    74  66  76 SE22G28   29.93S
PHILADELPHIA   CLEAR     61  39  44 CALM      30.23R
LOS ANGELES    PTCLDY    66  57  72 E7        29.90R
WASHINGTON DC  CLEAR     52  47  83 CALM      30.25R



USA.gov is the U.S. government's official web portal to all federal, state and local government web resources and services.